Time,TemperatureF,DewpointF,PressureIn,WindDirection,WindDirectionDegrees,WindSpeedMPH,WindSpeedGustMPH,Humidity,HourlyPrecipIn,Conditions,Clouds,dailyrainin,SoftwareType,DateUTC
2013-04-30 00:02:00,53.0,-99.9,30.20,SE,133,4.0,8.0,-999,-99.99,,,-99.99,,2013-04-30 04:02:00,
2013-04-30 00:12:00,53.0,-99.9,30.20,SSE,149,6.0,9.0,-999,-99.99,,,-99.99,,2013-04-30 04:12:00,
2013-04-30 00:22:00,53.0,-99.9,30.20,SE,128,5.0,9.0,-999,-99.99,,,-99.99,,2013-04-30 04:22:00,
2013-04-30 00:32:00,52.0,-99.9,30.20,SE,146,4.0,7.0,-999,-99.99,,,-99.99,,2013-04-30 04:32:00,
2013-04-30 00:42:00,52.0,-99.9,30.20,SE,142,5.0,8.0,-999,-99.99,,,-99.99,,2013-04-30 04:42:00,
2013-04-30 00:52:00,52.0,-99.9,30.20,SE,142,4.0,11.0,-999,-99.99,,,-99.99,,2013-04-30 04:52:00,
2013-04-30 01:02:00,52.0,-99.9,30.20,SE,132,5.0,9.0,-999,-99.99,,,-99.99,,2013-04-30 05:02:00,
2013-04-30 01:12:00,52.0,-99.9,30.20,ESE,113,4.0,7.0,-999,-99.99,,,-99.99,,2013-04-30 05:12:00,
2013-04-30 01:22:00,52.0,-99.9,30.20,SE,124,5.0,8.0,-999,-99.99,,,-99.99,,2013-04-30 05:22:00,
2013-04-30 01:32:00,52.0,-99.9,30.20,SE,125,5.0,10.0,-999,-99.99,,,-99.99,,2013-04-30 05:32:00,
2013-04-30 01:42:00,52.0,-99.9,30.20,SE,124,3.0,6.0,-999,-99.99,,,-99.99,,2013-04-30 05:42:00,
2013-04-30 01:51:00,52.0,-99.9,30.19,ESE,119,4.0,5.0,-999,-99.99,,,-99.99,,2013-04-30 05:51:00,
2013-04-30 02:02:00,52.0,-99.9,30.19,ESE,123,4.0,8.0,-999,-99.99,,,-99.99,,2013-04-30 06:02:00,
2013-04-30 02:12:00,51.0,-99.9,30.19,ESE,123,3.0,5.0,-999,-99.99,,,-99.99,,2013-04-30 06:12:00,
2013-04-30 02:21:00,51.0,-99.9,30.19,ESE,105,3.0,4.0,-999,-99.99,,,-99.99,,2013-04-30 06:21:00,
2013-04-30 02:32:00,51.0,-99.9,30.19,ESE,121,1.0,2.0,-999,-99.99,,,-99.99,,2013-04-30 06:32:00,
2013-04-30 02:42:00,51.0,-99.9,30.19,ESE,108,2.0,3.0,-999,-99.99,,,-99.99,,2013-04-30 06:42:00,
2013-04-30 02:52:00,51.0,-99.9,30.19,East,79,2.0,3.0,-999,-99.99,,,-99.99,,2013-04-30 06:52:00,
2013-04-30 03:02:00,51.0,-99.9,30.19,East,99,3.0,4.0,-999,-99.99,,,-99.99,,2013-04-30 07:02:00,
2013-04-30 03:11:00,51.0,-99.9,30.19,East,89,3.0,4.0,-999,-99.99,,,-99.99,,2013-04-30 07:11:00,
2013-04-30 03:21:00,51.0,-99.9,30.19,East,80,1.0,2.0,-999,-99.99,,,-99.99,,2013-04-30 07:21:00,
2013-04-30 03:32:00,51.0,-99.9,30.19,East,89,2.0,3.0,-999,-99.99,,,-99.99,,2013-04-30 07:32:00,
2013-04-30 03:42:00,51.0,-99.9,30.19,East,88,2.0,2.0,-999,-99.99,,,-99.99,,2013-04-30 07:42:00,
2013-04-30 03:52:00,51.0,-99.9,30.19,ENE,73,3.0,4.0,-999,-99.99,,,-99.99,,2013-04-30 07:52:00,
2013-04-30 04:02:00,51.0,-99.9,30.19,ENE,76,3.0,4.0,-999,-99.99,,,-99.99,,2013-04-30 08:02:00,
2013-04-30 04:11:00,51.0,-99.9,30.20,ENE,65,4.0,5.0,-999,-99.99,,,-99.99,,2013-04-30 08:11:00,
2013-04-30 04:22:00,52.0,-99.9,30.20,ENE,73,3.0,4.0,-999,-99.99,,,-99.99,,2013-04-30 08:22:00,
2013-04-30 04:32:00,52.0,-99.9,30.20,ENE,71,3.0,5.0,-999,-99.99,,,-99.99,,2013-04-30 08:32:00,
2013-04-30 04:42:00,52.0,-99.9,30.20,East,81,2.0,3.0,-999,-99.99,,,-99.99,,2013-04-30 08:42:00,
2013-04-30 04:52:00,52.0,-99.9,30.20,ENE,72,4.0,5.0,-999,-99.99,,,-99.99,,2013-04-30 08:52:00,
2013-04-30 05:02:00,52.0,-99.9,30.20,ENE,67,3.0,4.0,-999,-99.99,,,-99.99,,2013-04-30 09:02:00,
2013-04-30 05:11:00,53.0,-99.9,30.20,ENE,75,3.0,4.0,-999,-99.99,,,-99.99,,2013-04-30 09:11:00,
2013-04-30 05:22:00,53.0,-99.9,30.20,East,91,3.0,4.0,-999,-99.99,,,-99.99,,2013-04-30 09:22:00,
2013-04-30 05:33:00,53.0,-99.9,30.20,East,90,2.0,3.0,-999,-99.99,,,-99.99,,2013-04-30 09:33:00,
2013-04-30 05:43:00,53.0,-99.9,30.20,ENE,74,3.0,4.0,-999,-99.99,,,-99.99,,2013-04-30 09:43:00,
2013-04-30 05:52:00,53.0,-99.9,30.21,East,91,2.0,3.0,-999,-99.99,,,-99.99,,2013-04-30 09:52:00,
2013-04-30 06:03:00,53.0,-99.9,30.21,ESE,106,2.0,3.0,-999,-99.99,,,-99.99,,2013-04-30 10:03:00,
2013-04-30 06:12:00,53.0,-99.9,30.21,East,98,3.0,5.0,-999,-99.99,,,-99.99,,2013-04-30 10:12:00,
2013-04-30 06:22:00,53.0,-99.9,30.21,ENE,74,4.0,5.0,-999,-99.99,,,-99.99,,2013-04-30 10:22:00,
2013-04-30 06:33:00,53.0,-99.9,30.22,ENE,68,4.0,7.0,-999,-99.99,,,-99.99,,2013-04-30 10:33:00,
2013-04-30 06:41:00,53.0,-99.9,30.22,ENE,74,6.0,8.0,-999,-99.99,,,-99.99,,2013-04-30 10:41:00,
2013-04-30 06:52:00,53.0,-99.9,30.22,ENE,77,4.0,6.0,-999,-99.99,,,-99.99,,2013-04-30 10:52:00,
2013-04-30 07:02:00,53.0,-99.9,30.22,ENE,69,3.0,4.0,-999,-99.99,,,-99.99,,2013-04-30 11:02:00,
2013-04-30 07:11:00,53.0,-99.9,30.23,NE,44,6.0,8.0,-999,-99.99,,,-99.99,,2013-04-30 11:11:00,
2013-04-30 07:21:00,53.0,-99.9,30.23,ENE,73,4.0,6.0,-999,-99.99,,,-99.99,,2013-04-30 11:21:00,
2013-04-30 07:32:00,53.0,-99.9,30.23,East,80,4.0,7.0,-999,-99.99,,,-99.99,,2013-04-30 11:32:00,
2013-04-30 07:42:00,53.0,-99.9,30.24,East,82,4.0,6.0,-999,-99.99,,,-99.99,,2013-04-30 11:42:00,
2013-04-30 07:52:00,54.0,-99.9,30.24,ENE,71,4.0,6.0,-999,-99.99,,,-99.99,,2013-04-30 11:52:00,
2013-04-30 08:01:00,54.0,-99.9,30.24,ENE,72,5.0,9.0,-999,-99.99,,,-99.99,,2013-04-30 12:01:00,
2013-04-30 08:11:00,54.0,-99.9,30.24,ENE,75,4.0,8.0,-999,-99.99,,,-99.99,,2013-04-30 12:11:00,
2013-04-30 08:22:00,54.0,-99.9,30.25,ENE,70,3.0,5.0,-999,-99.99,,,-99.99,,2013-04-30 12:22:00,
2013-04-30 08:31:00,54.0,-99.9,30.26,ENE,70,4.0,6.0,-999,-99.99,,,-99.99,,2013-04-30 12:31:00,
2013-04-30 08:42:00,54.0,-99.9,30.26,ENE,68,4.0,6.0,-999,-99.99,,,-99.99,,2013-04-30 12:42:00,
2013-04-30 08:51:00,54.0,-99.9,30.26,NE,55,6.0,7.0,-999,-99.99,,,-99.99,,2013-04-30 12:51:00,
2013-04-30 09:01:00,54.0,-99.9,30.26,ENE,60,5.0,7.0,-999,-99.99,,,-99.99,,2013-04-30 13:01:00,
2013-04-30 09:11:00,54.0,-99.9,30.27,NE,45,5.0,8.0,-999,-99.99,,,-99.99,,2013-04-30 13:11:00,
2013-04-30 09:21:00,55.0,-99.9,30.27,ENE,64,4.0,6.0,-999,-99.99,,,-99.99,,2013-04-30 13:21:00,
2013-04-30 09:31:00,55.0,-99.9,30.27,ENE,62,4.0,7.0,-999,-99.99,,,-99.99,,2013-04-30 13:31:00,
2013-04-30 09:41:00,55.0,-99.9,30.27,ENE,69,4.0,4.0,-999,-99.99,,,-99.99,,2013-04-30 13:41:00,
2013-04-30 09:52:00,55.0,-99.9,30.27,East,81,4.0,6.0,-999,-99.99,,,-99.99,,2013-04-30 13:52:00,
2013-04-30 10:02:00,55.0,-99.9,30.27,ENE,78,5.0,7.0,-999,-99.99,,,-99.99,,2013-04-30 14:02:00,
2013-04-30 10:11:00,56.0,-99.9,30.27,ENE,70,5.0,8.0,-999,-99.99,,,-99.99,,2013-04-30 14:11:00,
2013-04-30 10:21:00,56.0,-99.9,30.28,ENE,70,5.0,9.0,-999,-99.99,,,-99.99,,2013-04-30 14:21:00,
2013-04-30 10:31:00,56.0,-99.9,30.28,ENE,59,5.0,7.0,-999,-99.99,,,-99.99,,2013-04-30 14:31:00,
2013-04-30 10:41:00,57.0,-99.9,30.28,ENE,68,4.0,6.0,-999,-99.99,,,-99.99,,2013-04-30 14:41:00,
2013-04-30 10:52:00,57.0,-99.9,30.28,ENE,72,5.0,8.0,-999,-99.99,,,-99.99,,2013-04-30 14:52:00,
2013-04-30 11:02:00,57.0,-99.9,30.28,ENE,67,6.0,8.0,-999,-99.99,,,-99.99,,2013-04-30 15:02:00,
2013-04-30 11:11:00,58.0,-99.9,30.28,ENE,66,6.0,8.0,-999,-99.99,,,-99.99,,2013-04-30 15:11:00,
2013-04-30 11:21:00,58.0,-99.9,30.28,ENE,60,8.0,11.0,-999,-99.99,,,-99.99,,2013-04-30 15:21:00,
2013-04-30 11:32:00,58.0,-99.9,30.28,ENE,64,6.0,10.0,-999,-99.99,,,-99.99,,2013-04-30 15:32:00,
2013-04-30 11:42:00,59.0,-99.9,30.28,ENE,77,4.0,8.0,-999,-99.99,,,-99.99,,2013-04-30 15:42:00,
2013-04-30 11:53:00,61.0,-99.9,30.27,ESE,115,8.0,11.0,-999,-99.99,,,-99.99,,2013-04-30 15:53:00,
2013-04-30 12:02:00,61.0,-99.9,30.27,SE,141,7.0,10.0,-999,-99.99,,,-99.99,,2013-04-30 16:02:00,
2013-04-30 12:13:00,61.0,-99.9,30.27,SE,136,5.0,13.0,-999,-99.99,,,-99.99,,2013-04-30 16:13:00,
2013-04-30 12:23:00,62.0,-99.9,30.27,East,92,8.0,15.0,-999,-99.99,,,-99.99,,2013-04-30 16:23:00,
2013-04-30 12:33:00,61.0,-99.9,30.27,SE,134,9.0,13.0,-999,-99.99,,,-99.99,,2013-04-30 16:33:00,
2013-04-30 12:42:00,61.0,-99.9,30.27,ESE,123,10.0,15.0,-999,-99.99,,,-99.99,,2013-04-30 16:42:00,
2013-04-30 12:53:00,61.0,-99.9,30.27,ESE,121,9.0,14.0,-999,-99.99,,,-99.99,,2013-04-30 16:53:00,
2013-04-30 13:02:00,61.0,-99.9,30.27,ESE,109,9.0,13.0,-999,-99.99,,,-99.99,,2013-04-30 17:02:00,
2013-04-30 13:12:00,61.0,-99.9,30.27,SE,125,11.0,16.0,-999,-99.99,,,-99.99,,2013-04-30 17:12:00,
2013-04-30 13:22:00,61.0,-99.9,30.27,SE,133,8.0,11.0,-999,-99.99,,,-99.99,,2013-04-30 17:22:00,
2013-04-30 13:32:00,62.0,-99.9,30.27,SE,145,7.0,12.0,-999,-99.99,,,-99.99,,2013-04-30 17:32:00,
2013-04-30 13:42:00,62.0,-99.9,30.27,ESE,109,9.0,13.0,-999,-99.99,,,-99.99,,2013-04-30 17:42:00,
2013-04-30 13:53:00,61.0,-99.9,30.27,ESE,114,10.0,16.0,-999,-99.99,,,-99.99,,2013-04-30 17:53:00,
2013-04-30 14:01:00,62.0,-99.9,30.27,ESE,109,9.0,13.0,-999,-99.99,,,-99.99,,2013-04-30 18:01:00,
2013-04-30 14:11:00,62.0,-99.9,30.27,SSE,152,9.0,15.0,-999,-99.99,,,-99.99,,2013-04-30 18:11:00,
2013-04-30 14:22:00,61.0,-99.9,30.28,SSE,147,9.0,14.0,-999,-99.99,,,-99.99,,2013-04-30 18:22:00,
2013-04-30 14:32:00,62.0,-99.9,30.28,SE,138,9.0,15.0,-999,-99.99,,,-99.99,,2013-04-30 18:32:00,
2013-04-30 14:42:00,62.0,-99.9,30.28,SE,130,9.0,15.0,-999,-99.99,,,-99.99,,2013-04-30 18:42:00,
2013-04-30 14:52:00,62.0,-99.9,30.28,ESE,109,11.0,18.0,-999,-99.99,,,-99.99,,2013-04-30 18:52:00,
2013-04-30 15:02:00,62.0,-99.9,30.28,ESE,112,9.0,12.0,-999,-99.99,,,-99.99,,2013-04-30 19:02:00,
2013-04-30 15:11:00,61.0,-99.9,30.28,East,101,10.0,14.0,-999,-99.99,,,-99.99,,2013-04-30 19:11:00,
2013-04-30 15:22:00,62.0,-99.9,30.28,ESE,108,11.0,15.0,-999,-99.99,,,-99.99,,2013-04-30 19:22:00,
2013-04-30 15:32:00,61.0,-99.9,30.28,ESE,111,11.0,16.0,-999,-99.99,,,-99.99,,2013-04-30 19:32:00,
2013-04-30 15:42:00,62.0,-99.9,30.28,SE,135,9.0,14.0,-999,-99.99,,,-99.99,,2013-04-30 19:42:00,
2013-04-30 15:52:00,62.0,-99.9,30.28,ESE,110,11.0,17.0,-999,-99.99,,,-99.99,,2013-04-30 19:52:00,
2013-04-30 16:02:00,62.0,-99.9,30.28,SE,137,9.0,14.0,-999,-99.99,,,-99.99,,2013-04-30 20:02:00,
2013-04-30 16:11:00,62.0,-99.9,30.28,SE,125,10.0,17.0,-999,-99.99,,,-99.99,,2013-04-30 20:11:00,
2013-04-30 16:22:00,62.0,-99.9,30.28,SSE,150,10.0,17.0,-999,-99.99,,,-99.99,,2013-04-30 20:22:00,
2013-04-30 16:32:00,62.0,-99.9,30.28,SE,140,7.0,18.0,-999,-99.99,,,-99.99,,2013-04-30 20:32:00,
2013-04-30 16:42:00,62.0,-99.9,30.28,ESE,109,6.0,11.0,-999,-99.99,,,-99.99,,2013-04-30 20:42:00,
2013-04-30 16:52:00,62.0,-99.9,30.29,SE,146,8.0,16.0,-999,-99.99,,,-99.99,,2013-04-30 20:52:00,
2013-04-30 17:02:00,61.0,-99.9,30.29,ESE,117,10.0,16.0,-999,-99.99,,,-99.99,,2013-04-30 21:02:00,
2013-04-30 17:11:00,61.0,-99.9,30.29,SE,130,7.0,12.0,-999,-99.99,,,-99.99,,2013-04-30 21:11:00,
2013-04-30 17:22:00,60.0,-99.9,30.29,SE,130,8.0,13.0,-999,-99.99,,,-99.99,,2013-04-30 21:22:00,
2013-04-30 17:32:00,61.0,-99.9,30.29,ESE,123,6.0,11.0,-999,-99.99,,,-99.99,,2013-04-30 21:32:00,
2013-04-30 17:42:00,60.0,-99.9,30.29,SE,143,11.0,17.0,-999,-99.99,,,-99.99,,2013-04-30 21:42:00,
2013-04-30 17:53:00,60.0,-99.9,30.30,SE,130,9.0,14.0,-999,-99.99,,,-99.99,,2013-04-30 21:53:00,
2013-04-30 18:03:00,60.0,-99.9,30.30,SE,126,7.0,13.0,-999,-99.99,,,-99.99,,2013-04-30 22:03:00,
2013-04-30 18:12:00,60.0,-99.9,30.30,SSE,154,5.0,12.0,-999,-99.99,,,-99.99,,2013-04-30 22:12:00,
2013-04-30 18:23:00,59.0,-99.9,30.31,SE,140,9.0,15.0,-999,-99.99,,,-99.99,,2013-04-30 22:23:00,
2013-04-30 18:33:00,59.0,-99.9,30.31,SE,129,5.0,8.0,-999,-99.99,,,-99.99,,2013-04-30 22:33:00,
2013-04-30 18:42:00,59.0,-99.9,30.30,SE,132,5.0,9.0,-999,-99.99,,,-99.99,,2013-04-30 22:42:00,
2013-04-30 18:53:00,60.0,-99.9,30.30,SE,134,5.0,8.0,-999,-99.99,,,-99.99,,2013-04-30 22:53:00,
2013-04-30 19:03:00,59.0,-99.9,30.30,SE,135,7.0,11.0,-999,-99.99,,,-99.99,,2013-04-30 23:03:00,
2013-04-30 19:12:00,59.0,-99.9,30.30,SE,135,6.0,9.0,-999,-99.99,,,-99.99,,2013-04-30 23:12:00,
2013-04-30 19:22:00,59.0,-99.9,30.31,SE,127,4.0,6.0,-999,-99.99,,,-99.99,,2013-04-30 23:22:00,
2013-04-30 19:32:00,58.0,-99.9,30.30,SSE,150,9.0,16.0,-999,-99.99,,,-99.99,,2013-04-30 23:32:00,
2013-04-30 19:42:00,58.0,-99.9,30.31,SE,131,6.0,13.0,-999,-99.99,,,-99.99,,2013-04-30 23:42:00,
2013-04-30 19:52:00,57.0,-99.9,30.30,ESE,121,6.0,8.0,-999,-99.99,,,-99.99,,2013-04-30 23:52:00,
2013-04-30 20:02:00,57.0,-99.9,30.30,SE,132,5.0,12.0,-999,-99.99,,,-99.99,,2013-05-01 00:02:00,
2013-04-30 20:11:00,56.0,-99.9,30.31,SE,143,5.0,7.0,-999,-99.99,,,-99.99,,2013-05-01 00:11:00,
2013-04-30 20:22:00,56.0,-99.9,30.31,SE,125,4.0,6.0,-999,-99.99,,,-99.99,,2013-05-01 00:22:00,
2013-04-30 20:32:00,56.0,-99.9,30.31,SE,135,3.0,5.0,-999,-99.99,,,-99.99,,2013-05-01 00:32:00,
2013-04-30 20:42:00,55.0,-99.9,30.31,SSE,148,2.0,3.0,-999,-99.99,,,-99.99,,2013-05-01 00:42:00,
2013-04-30 20:52:00,55.0,-99.9,30.31,SE,136,2.0,4.0,-999,-99.99,,,-99.99,,2013-05-01 00:52:00,
2013-04-30 21:01:00,55.0,-99.9,30.31,SE,145,3.0,5.0,-999,-99.99,,,-99.99,,2013-05-01 01:01:00,
2013-04-30 21:11:00,55.0,-99.9,30.31,SSE,148,2.0,3.0,-999,-99.99,,,-99.99,,2013-05-01 01:11:00,
2013-04-30 21:21:00,55.0,-99.9,30.32,SE,129,2.0,3.0,-999,-99.99,,,-99.99,,2013-05-01 01:21:00,
2013-04-30 21:32:00,54.0,-99.9,30.32,SE,131,3.0,4.0,-999,-99.99,,,-99.99,,2013-05-01 01:32:00,
2013-04-30 21:42:00,54.0,-99.9,30.32,SE,126,3.0,4.0,-999,-99.99,,,-99.99,,2013-05-01 01:42:00,
2013-04-30 21:52:00,54.0,-99.9,30.32,SE,124,1.0,2.0,-999,-99.99,,,-99.99,,2013-05-01 01:52:00,
2013-04-30 22:02:00,54.0,-99.9,30.32,SSE,150,2.0,3.0,-999,-99.99,,,-99.99,,2013-05-01 02:02:00,
2013-04-30 22:11:00,54.0,-99.9,30.32,SE,128,2.0,3.0,-999,-99.99,,,-99.99,,2013-05-01 02:11:00,
2013-04-30 22:22:00,53.0,-99.9,30.32,SE,127,4.0,5.0,-999,-99.99,,,-99.99,,2013-05-01 02:22:00,
2013-04-30 22:32:00,53.0,-99.9,30.32,SE,132,2.0,3.0,-999,-99.99,,,-99.99,,2013-05-01 02:32:00,
2013-04-30 22:42:00,53.0,-99.9,30.32,SE,138,1.0,2.0,-999,-99.99,,,-99.99,,2013-05-01 02:42:00,
2013-04-30 22:52:00,53.0,-99.9,30.32,SE,134,2.0,2.0,-999,-99.99,,,-99.99,,2013-05-01 02:52:00,
2013-04-30 23:02:00,53.0,-99.9,30.31,SE,136,2.0,3.0,-999,-99.99,,,-99.99,,2013-05-01 03:02:00,
2013-04-30 23:11:00,53.0,-99.9,30.31,SE,128,2.0,2.0,-999,-99.99,,,-99.99,,2013-05-01 03:11:00,
2013-04-30 23:22:00,53.0,-99.9,30.31,ESE,118,2.0,2.0,-999,-99.99,,,-99.99,,2013-05-01 03:22:00,
2013-04-30 23:33:00,53.0,-99.9,30.31,ESE,107,2.0,2.0,-999,-99.99,,,-99.99,,2013-05-01 03:33:00,
2013-04-30 23:43:00,52.0,-99.9,30.31,NNW,341,0.0,1.0,-999,-99.99,,,-99.99,,2013-05-01 03:43:00,
2013-04-30 23:53:00,52.0,-99.9,30.31,ESE,104,1.0,2.0,-999,-99.99,,,-99.99,,2013-05-01 03:53:00,